EW9259 Weather Reports


time (UTC)temp
F
wind
direction
speed
knots
gust
knots
rain 1hr
in
rain 24hr
in
rain mn
in
humidity
%
barometer
mb
20260506114004 57 0 0.0 0.0 0.00 0.00 0.00 78 1013.4
20260506113504 57 0 0.0 0.9 0.00 0.00 0.00 79 1012.4
20260506113004 57 0 0.0 2.6 0.00 0.00 0.00 79 1011.5
20260506112504 57 0 0.0 4.3 0.00 0.00 0.00 79 1011.5
20260506112004 57 0 0.0 4.3 0.00 0.00 0.00 79 1011.4
20260506111504 57 0 0.0 1.7 0.00 0.00 0.00 79 1011.3
20260506111004 57 0 0.0 0.0 0.00 0.00 0.00 79 1011.5
20260506110503 57 0 0.0 0.9 0.00 0.00 0.00 78 1011.9
20260506110005 57 0 0.0 0.9 0.00 0.00 0.00 78 1011.6
20260506105504 58 0 0.0 0.9 0.00 0.00 0.00 78 1011.3
20260506104504 58 0 0.0 2.6 0.00 0.00 0.00 78 1011.5
20260506104004 58 0 0.0 0.9 0.00 0.00 0.00 78 1011.3
20260506103504 58 0 0.0 2.6 0.00 0.00 0.00 77 1011.1
20260506102504 59 0 0.0 0.0 0.00 0.00 0.00 77 1010.8
20260506102003 59 0 0.0 0.9 0.00 0.00 0.00 77 1011.0
20260506101504 59 0 0.0 1.7 0.00 0.00 0.00 77 1011.3
20260506101004 59 0 0.0 1.7 0.00 0.00 0.00 77 1010.9
20260506100504 59 0 0.0 0.0 0.00 0.00 0.00 77 1010.9
20260506095503 60 0 0.0 0.0 0.00 0.00 0.00 77 1010.7
20260506095004 60 0 0.0 0.0 0.00 0.00 0.00 78 1010.4
20260506094003 60 0 0.0 0.0 0.00 0.00 0.00 77 1010.8
20260506093504 60 0 0.0 0.0 0.00 0.00 0.00 77 1010.7
20260506093004 60 0 0.0 0.9 0.00 0.00 0.00 77 1010.8
20260506092503 60 0 0.0 8.7 0.00 0.00 0.00 76 1010.5
20260506091003 61 25 1.7 6.1 0.00 0.00 0.00 76 1010.2
20260506090505 61 31 0.9 7.0 0.00 0.00 0.00 76 1010.1
20260506090004 61 0 0.0 7.0 0.00 0.00 0.00 75 1010.1
20260506085504 62 0 0.0 0.0 0.00 0.00 0.00 75 1010.4
20260506084004 62 0 0.0 7.0 0.00 0.00 0.00 75 1009.9
20260506083504 63 0 0.0 0.0 0.00 0.00 0.00 75 1010.2
20260506083004 63 0 0.0 0.0 0.00 0.00 0.00 74 1010.4
20260506082504 63 0 0.0 0.0 0.00 0.00 0.00 74 1010.4
20260506082004 63 0 0.0 0.0 0.00 0.00 0.00 73 1010.3
20260506081504 63 0 0.0 0.0 0.00 0.00 0.00 73 1010.4
20260506081004 64 0 0.0 0.0 0.00 0.00 0.00 73 1010.4
20260506080503 64 0 0.0 1.7 0.00 0.00 0.00 72 1010.2
20260506073503 66 48 2.6 7.0 0.00 0.00 0.00 70 1010.3
20260506073004 66 55 2.6 7.0 0.00 0.00 0.00 69 1010.2
20260506072503 67 55 0.9 7.0 0.00 0.00 0.00 69 1010.1
20260506072004 67 0 0.0 0.9 0.00 0.00 0.00 68 1010.2
20260506071504 67 82 0.9 7.0 0.00 0.00 0.00 68 1010.2
20260506071004 68 74 1.7 7.8 0.00 0.00 0.00 68 1010.3
20260506070504 68 71 0.9 7.8 0.00 0.00 0.00 67 1010.6
20260506062503 69 61 0.9 5.2 0.00 0.00 0.00 65 1009.9
20260506061505 70 56 1.7 6.1 0.00 0.00 0.00 64 1009.6
20260506061005 70 56 1.7 5.2 0.00 0.00 0.00 64 1009.5
20260506060505 70 66 0.9 5.2 0.00 0.00 0.00 63 1009.5
20260506051005 71 0 0.0 0.0 0.00 0.00 0.00 51 1009.1
20260506050505 71 0 0.0 0.0 0.00 0.00 0.00 52 1009.2
20260506045005 71 0 0.0 0.0 0.00 0.00 0.00 54 1009.3
20260506044505 71 0 0.0 0.0 0.00 0.00 0.00 55 1009.3
20260506044005 72 0 0.0 0.0 0.00 0.00 0.00 54 1009.2
20260506043005 72 0 0.0 0.0 0.00 0.00 0.00 47 1009.0
20260506042504 72 0 0.0 0.0 0.00 0.00 0.00 48 1009.0
20260506041505 72 0 0.0 0.0 0.00 0.00 0.00 46 1008.9
20260506041004 73 0 0.0 0.0 0.00 0.00 0.00 45 1008.8
20260506040504 73 0 0.0 0.0 0.00 0.00 0.00 45 1008.8
20260506040005 73 0 0.0 0.0 0.00 0.00 0.00 46 1008.8
20260506035504 73 0 0.0 0.0 0.00 0.00 0.00 45 1008.8
20260506035005 73 0 0.0 0.0 0.00 0.00 0.00 45 1008.7
20260506034505 73 0 0.0 0.0 0.00 0.00 0.00 44 1008.5
20260506033505 74 0 0.0 0.0 0.00 0.00 0.00 43 1008.7
20260506033005 74 0 0.0 0.0 0.00 0.00 0.00 43 1008.8
20260506032506 74 0 0.0 0.0 0.00 0.00 0.00 43 1008.7
20260506032004 75 0 0.0 0.0 0.00 0.00 0.00 42 1008.7
20260506031505 75 0 0.0 0.0 0.00 0.00 0.00 41 1008.8
20260506031005 75 0 0.0 0.0 0.00 0.00 0.00 40 1008.8
20260506030005 76 0 0.0 0.0 0.00 0.00 0.00 38 1008.6
20260506025505 77 0 0.0 0.0 0.00 0.00 0.00 37 1008.6
20260506025005 78 0 0.0 0.0 0.00 0.00 0.00 36 1008.6
20260506024505 78 0 0.0 0.0 0.00 0.00 0.00 35 1008.5
20260506024006 79 0 0.0 0.0 0.00 0.00 0.00 34 1008.3
20260506023505 79 0 0.0 0.0 0.00 0.00 0.00 34 1008.2
20260506023005 79 0 0.0 0.0 0.00 0.00 0.00 33 1008.1
20260506022504 79 0 0.0 0.0 0.00 0.00 0.00 34 1008.2
20260506022004 79 0 0.0 0.0 0.00 0.00 0.00 34 1008.1
20260506021504 80 0 0.0 0.0 0.00 0.00 0.00 33 1008.1
20260506021005 80 0 0.0 0.0 0.00 0.00 0.00 33 1008.1
20260506020505 80 0 0.0 0.0 0.00 0.00 0.00 32 1008.1
20260506020005 80 0 0.0 0.0 0.00 0.00 0.00 32 1007.9
20260506015505 81 0 0.0 0.0 0.00 0.00 0.00 31 1007.9
20260506015005 81 0 0.0 0.0 0.00 0.00 0.00 31 1007.9
20260506014505 82 0 0.0 0.0 0.00 0.00 0.00 31 1007.8
20260506013005 83 0 0.0 0.0 0.00 0.00 0.00 29 1007.3
20260506012505 84 0 0.0 0.9 0.00 0.00 0.00 28 1007.3
20260506012005 84 0 0.0 0.9 0.00 0.00 0.00 28 1007.2
20260506011505 84 0 0.0 0.0 0.00 0.00 0.00 28 1007.2
20260506011004 85 0 0.0 0.0 0.00 0.00 0.00 27 1007.1
20260506010505 85 0 0.0 0.0 0.00 0.00 0.00 27 1007.0
20260506005505 86 0 0.0 0.0 0.00 0.00 0.00 28 1007.1
20260506005004 86 0 0.0 2.6 0.00 0.00 0.00 28 1007.2
20260506004505 86 0 0.0 2.6 0.00 0.00 0.00 29 1007.1
20260506003505 87 0 0.0 0.0 0.00 0.00 0.00 32 1007.0
20260506003005 88 0 0.0 0.0 0.00 0.00 0.00 30 1006.7
20260506002505 88 0 0.0 0.0 0.00 0.00 0.00 30 1006.7
20260506002005 88 0 0.0 0.0 0.00 0.00 0.00 29 1006.6
20260506001505 89 0 0.0 0.0 0.00 0.00 0.00 30 1006.6
20260506001005 88 0 0.0 0.0 0.00 0.00 0.00 30 1006.6
20260506000504 88 0 0.0 0.0 0.00 0.00 0.00 30 1006.6
20260506000005 88 0 0.0 0.0 0.00 0.00 0.00 29 1006.6
20260505235504 88 0 0.0 0.0 0.00 0.00 0.00 29 1006.5
20260505235005 88 0 0.0 0.0 0.00 0.00 0.00 29 1006.5
20260505234505 89 0 0.0 0.0 0.00 0.00 0.00 28 1006.5
20260505234004 89 0 0.0 2.6 0.00 0.00 0.00 27 1006.4
20260505233005 90 266 0.9 5.2 0.00 0.00 0.00 27 1006.4
20260505232505 90 248 0.9 6.1 0.00 0.00 0.00 28 1006.5
20260505232004 90 262 0.9 6.1 0.00 0.00 0.00 27 1006.4
20260505231505 90 263 0.9 3.5 0.00 0.00 0.00 27 1006.5
20260505231005 90 260 0.9 3.5 0.00 0.00 0.00 26 1006.4
20260505230505 91 270 0.9 3.5 0.00 0.00 0.00 27 1006.5
20260505230005 91 269 0.9 5.2 0.00 0.00 0.00 26 1006.4
20260505225505 91 0 0.0 5.2 0.00 0.00 0.00 25 1006.4
20260505225004 92 0 0.0 0.0 0.00 0.00 0.00 27 1006.6
20260505224505 92 268 0.9 7.0 0.00 0.00 0.00 27 1006.6
20260505224004 92 268 0.9 7.0 0.00 0.00 0.00 26 1006.6
20260505223504 92 0 0.0 0.0 0.00 0.00 0.00 28 1006.7
20260505223005 91 0 0.0 0.0 0.00 0.00 0.00 27 1006.6
20260505222505 92 0 0.0 0.0 0.00 0.00 0.00 26 1006.5
20260505222005 91 0 0.0 0.0 0.00 0.00 0.00 27 1006.6
20260505221005 91 0 0.0 0.0 0.00 0.00 0.00 27 1006.6
20260505220505 91 0 0.0 0.0 0.00 0.00 0.00 29 1006.6
20260505220004 91 0 0.0 0.0 0.00 0.00 0.00 28 1006.7
20260505215504 92 0 0.0 0.0 0.00 0.00 0.00 27 1006.6
20260505215004 92 0 0.0 0.0 0.00 0.00 0.00 29 1006.6
20260505214505 91 0 0.0 0.0 0.00 0.00 0.00 27 1006.7
20260505214004 91 0 0.0 0.0 0.00 0.00 0.00 27 1006.6
20260505213504 91 0 0.0 0.0 0.00 0.00 0.00 26 1006.6
20260505213005 92 0 0.0 0.0 0.00 0.00 0.00 27 1006.7
20260505212005 92 0 0.0 0.0 0.00 0.00 0.00 31 1006.7
20260505211505 92 0 0.0 0.9 0.00 0.00 0.00 28 1006.7
20260505211004 92 0 0.0 0.9 0.00 0.00 0.00 27 1006.8
20260505210504 92 0 0.0 0.0 0.00 0.00 0.00 27 1007.0
20260505210005 92 316 0.9 6.1 0.00 0.00 0.00 27 1007.1
20260505205504 92 313 2.6 7.8 0.00 0.00 0.00 27 1007.1
20260505205004 92 310 2.6 7.8 0.00 0.00 0.00 29 1007.0
20260505204504 92 309 1.7 5.2 0.00 0.00 0.00 29 1007.3
20260505204004 92 296 1.7 5.2 0.00 0.00 0.00 28 1007.2
20260505203005 92 300 1.7 5.2 0.00 0.00 0.00 28 1007.2
20260505202504 92 299 1.7 4.3 0.00 0.00 0.00 29 1007.3
20260505202004 92 288 1.7 4.3 0.00 0.00 0.00 29 1007.3
20260505201504 92 280 0.9 4.3 0.00 0.00 0.00 29 1007.3
20260505200505 92 283 1.7 5.2 0.00 0.00 0.00 30 1007.5
20260505195505 91 301 1.7 5.2 0.00 0.00 0.00 32 1007.6
20260505195004 91 297 1.7 7.0 0.00 0.00 0.00 34 1007.6
20260505194505 91 303 1.7 8.7 0.00 0.00 0.00 32 1007.7
20260505194004 91 291 1.7 8.7 0.00 0.00 0.00 32 1007.8
20260505193005 90 317 2.6 6.1 0.00 0.00 0.00 35 1007.7
20260505192504 90 314 2.6 7.8 0.00 0.00 0.00 35 1007.9
20260505192004 90 310 2.6 7.8 0.00 0.00 0.00 33 1007.9
20260505191505 90 297 2.6 7.0 0.00 0.00 0.00 34 1007.9
20260505191004 90 282 1.7 5.2 0.00 0.00 0.00 35 1008.0
20260505190504 89 294 1.7 6.1 0.00 0.00 0.00 36 1008.1
20260505190006 89 302 1.7 6.1 0.00 0.00 0.00 37 1008.1
20260505185504 89 303 0.9 5.2 0.00 0.00 0.00 38 1008.2
20260505185004 90 0 0.0 2.6 0.00 0.00 0.00 37 1008.2
20260505183504 89 0 0.0 0.0 0.00 0.00 0.00 40 1008.3
20260505183004 89 0 0.0 0.9 0.00 0.00 0.00 40 1008.2
20260505182504 88 0 0.0 0.9 0.00 0.00 0.00 40 1008.3
20260505182004 89 0 0.0 0.0 0.00 0.00 0.00 40 1008.4
20260505181504 89 0 0.0 1.7 0.00 0.00 0.00 40 1008.5
20260505181004 88 0 0.0 1.7 0.00 0.00 0.00 42 1008.6
20260505180004 88 0 0.0 0.0 0.00 0.00 0.00 43 1008.6
20260505175504 88 0 0.0 0.0 0.00 0.00 0.00 42 1008.6
20260505174505 87 0 0.0 0.9 0.00 0.00 0.00 44 1008.7
20260505174005 87 0 0.0 0.0 0.00 0.00 0.00 44 1008.7
20260505173504 87 0 0.0 0.0 0.00 0.00 0.00 53 1008.9
20260505173006 86 0 0.0 0.0 0.00 0.00 0.00 55 1008.9
20260505172504 86 0 0.0 0.0 0.00 0.00 0.00 54 1008.9
20260505172004 85 0 0.0 0.9 0.00 0.00 0.00 56 1008.9
20260505171004 84 0 0.0 0.0 0.00 0.00 0.00 57 1008.9
20260505170505 84 0 0.0 0.0 0.00 0.00 0.00 58 1008.8
20260505170004 84 0 0.0 5.2 0.00 0.00 0.00 59 1008.7
20260505165504 83 0 0.0 5.2 0.00 0.00 0.00 61 1008.7
20260505164504 82 225 1.7 7.8 0.00 0.00 0.00 63 1008.7
20260505164004 82 231 2.6 7.8 0.00 0.00 0.00 63 1008.7
20260505163504 82 236 2.6 7.8 0.00 0.00 0.00 63 1008.8
20260505163004 81 233 0.9 8.7 0.00 0.00 0.00 65 1008.7
20260505162504 81 233 0.9 8.7 0.00 0.00 0.00 64 1008.7
20260505162004 81 0 0.0 3.5 0.00 0.00 0.00 67 1008.7
20260505161505 80 0 0.0 3.5 0.00 0.00 0.00 67 1008.8
20260505161004 80 0 0.0 1.7 0.00 0.00 0.00 67 1008.7
20260505153004 77 226 0.9 9.6 0.00 0.00 0.00 74 1008.7
20260505152504 77 221 1.7 8.7 0.00 0.00 0.00 75 1008.7
20260505152003 77 220 0.9 6.1 0.00 0.00 0.00 76 1008.7
20260505151505 76 0 0.0 4.3 0.00 0.00 0.00 76 1008.6
20260505140504 72 215 1.7 13.9 0.00 0.00 0.00 83 1008.5
20260505125004 68 219 0.9 8.7 0.00 0.00 0.00 88 1007.9
20260505124504 68 222 0.9 11.3 0.00 0.00 0.00 88 1007.8
20260505124004 68 227 2.6 11.3 0.00 0.00 0.00 88 1007.9
20260505123504 68 225 1.7 9.6 0.00 0.00 0.00 88 1007.8
20260505123005 68 208 1.7 7.8 0.00 0.00 0.00 88 1007.9
20260505121504 67 220 2.6 10.4 0.00 0.00 0.00 88 1007.7
20260505121004 67 220 2.6 10.4 0.00 0.00 0.00 88 1007.6
20260505120503 67 221 2.6 10.4 0.00 0.00 0.00 88 1007.6
20260505120005 67 219 0.9 10.4 0.00 0.00 0.00 88 1007.4
20260505115504 67 0 0.0 1.7 0.00 0.00 0.00 88 1007.5
20260505115003 67 0 0.0 6.1 0.00 0.00 0.00 88 1007.6